Home   Weather   Kalisz   Past weeks

Flag for Poland Past Weather in Kalisz, Poland — Yesterday and Last 2 Weeks

Now
54 °F

Overcast.


Feels Like: 54 °F
Forecast: 56 / 69 °F
Wind: No wind

Location: Kalisz

Current Time: Oct 1, 2016 at 6:55:45 AM

Latest Report: Oct 1, 2016 at 6:00 AM


Visibility: 6 mi

Pressure: 29.98 "Hg

Humidity: 94%

Dew Point: 52 °F

Location of KaliszLocation

Past Weather in Kalisz — Graph

°F

Kalisz Temperature Yesterday

Maximum temperature yesterday: 70 °F (at 5:00 PM)
Minimum temperature yesterday: 58 °F (at 7:00 AM)
Average temperature yesterday: 64 °F

High & Low Weather Summary for the Past Weeks

 TemperatureHumidityPressure
High80 °F (Sep 16, 4:00 PM)99% (Sep 21, 5:00 AM)30.37 "Hg (Sep 21, 5:00 AM)
Low41 °F (Sep 22, 6:00 AM)40% (Sep 25, 5:00 PM)29.85 "Hg (Sep 17, 3:00 PM)
Average57 °F72%30.11 "Hg
* Reported Sep 16 5:00 AM — Oct 1 5:00 AM, Kalisz, Weather by CustomWeather, © 2016

Note: Actual official high and low records may vary slightly from our data, if they occured in-between our weather recording intervals... More about our weather records

Advertising

Kalisz Weather History for the Previous 24 Hours

Scroll right to see more
 ConditionsComfort  
Time TempWeatherWind HumidityBarometerVisibility
5:00 AM
Sat, Oct 1
55 °FOvercast.1 mph93%29.98 "Hg8 mi
3:00 AM55 °FOvercast.1 mph92%29.99 "Hg7 mi
2:00 AM56 °FOvercast.2 mph90%29.99 "Hg11 mi
1:00 AM58 °FOvercast.2 mph88%29.99 "Hg14 mi
12:00 AM58 °FOvercast.3 mph86%29.98 "Hg25 mi
11:00 PM
Fri, Sep 30
59 °FOvercast.2 mph81%29.98 "Hg31 mi
10:00 PM60 °FOvercast.2 mph80%29.98 "Hg9 mi
9:00 PM61 °FOvercast.6 mph78%29.97 "Hg19 mi
8:00 PM65 °FOvercast.1 mph72%29.92 "Hg7 mi
7:00 PM66 °FOvercast.No wind72%29.91 "Hg9 mi
6:00 PM69 °FOvercast.1 mph65%29.91 "Hg19 mi
5:00 PM70 °FOvercast.2 mph66%29.92 "Hg19 mi
4:00 PM69 °FOvercast.5 mph64%29.93 "Hg25 mi
3:00 PM69 °FOvercast.5 mph64%29.94 "Hg22 mi
2:00 PM68 °FPartly sunny.5 mph66%29.96 "Hg19 mi
1:00 PM65 °FOvercast.5 mph69%29.97 "Hg19 mi
12:00 PM65 °FOvercast.5 mph71%29.97 "Hg22 mi
11:00 AM64 °FOvercast.2 mph71%29.98 "Hg22 mi
10:00 AM64 °FOvercast.5 mph71%29.96 "Hg19 mi
9:00 AM64 °FOvercast.5 mph75%29.94 "Hg19 mi
8:00 AM59 °FOvercast.3 mph81%29.93 "Hg25 mi
7:00 AM58 °FPartly sunny.3 mph80%29.91 "Hg15 mi
6:00 AM59 °FPassing clouds.3 mph78%29.89 "Hg25 mi
Weather by CustomWeather, © 2016

See weather overviewHow to use our weather pages